When you browse on this site, cookies collect data to enhance your experience and personalize the content and advertising you see.
Visit our Privacy Policy to learn more. By continuing to use the site, you agree to this use of cookies and data.
  • In Österreich
  • Länderverzeichnis
  • Für 7 Tage
  • Wassertemperatur
  • Satellitenkarten
  • Wetterkarte
  • News
  • Widgets
  • user-avatar
    Anmelden

    Stündliche Wetter Kryl

    Heute, 26 Mai, Sonntag

    Zeit Temperatur Niederschläge Wind Luftdruck Luftfeuchtigkeit
    00:00 +9°C° 0 mm 2 m/S 750 mmHg 83%
    01:00 +9°C° 0 mm 2 m/S 750 mmHg 84%
    02:00 +9°C° 0 mm 2 m/S 750 mmHg 83%
    03:00 +9°C° 0 mm 2 m/S 750 mmHg 82%
    04:00 +9°C° 0 mm 2 m/S 750 mmHg 81%
    05:00 +10°C° 0 mm 3 m/S 750 mmHg 76%
    06:00 +11°C° 0 mm 3 m/S 750 mmHg 72%
    07:00 +12°C° 0 mm 3 m/S 750 mmHg 67%
    08:00 +14°C° 0 mm 4 m/S 749 mmHg 63%
    09:00 +15°C° 0 mm 4 m/S 749 mmHg 58%
    10:00 +17°C° 0 mm 4 m/S 749 mmHg 53%
    11:00 +19°C° 0 mm 5 m/S 749 mmHg 50%
    12:00 +20°C° 0 mm 5 m/S 748 mmHg 46%
    13:00 +21°C° 0 mm 5 m/S 748 mmHg 43%
    14:00 +21°C° 0 mm 5 m/S 747 mmHg 46%
    15:00 +21°C° 0 mm 5 m/S 747 mmHg 48%
    16:00 +21°C° 0 mm 5 m/S 747 mmHg 51%
    17:00 +20°C° 0 mm 4 m/S 747 mmHg 56%
    18:00 +19°C° 0 mm 3 m/S 746 mmHg 61%
    19:00 +19°C° 0 mm 2 m/S 746 mmHg 66%
    20:00 +18°C° 0 mm 2 m/S 746 mmHg 70%
    21:00 +17°C° 0 mm 2 m/S 746 mmHg 74%
    22:00 +16°C° 0 mm 2 m/S 746 mmHg 77%
    23:00 +16°C° 0 mm 2 m/S 746 mmHg 78%

    Morgen, 27 Mai, Montag

    Zeit Temperatur Niederschläge Wind Luftdruck Luftfeuchtigkeit
    00:00 +16°C° 0 mm 3 m/S 745 mmHg 79%
    01:00 +15°C° 0 mm 4 m/S 745 mmHg 79%
    02:00 +14°C° 0 mm 4 m/S 745 mmHg 79%
    03:00 +14°C° 0 mm 4 m/S 745 mmHg 78%
    04:00 +14°C° 0 mm 4 m/S 744 mmHg 78%
    05:00 +15°C° 0 mm 4 m/S 744 mmHg 75%
    06:00 +17°C° 0 mm 4 m/S 744 mmHg 72%
    07:00 +17°C° 0 mm 5 m/S 744 mmHg 69%
    08:00 +19°C° 0 mm 5 m/S 745 mmHg 67%
    09:00 +20°C° 0 mm 5 m/S 745 mmHg 64%
    10:00 +21°C° 0 mm 6 m/S 745 mmHg 61%
    11:00 +21°C° 0.2 mm 6 m/S 745 mmHg 62%
    12:00 +21°C° 0.2 mm 6 m/S 745 mmHg 63%
    13:00 +20°C° 0.2 mm 5 m/S 745 mmHg 64%
    14:00 +20°C° 0 mm 5 m/S 745 mmHg 60%
    15:00 +20°C° 0 mm 4 m/S 745 mmHg 57%
    16:00 +20°C° 0 mm 4 m/S 745 mmHg 53%
    17:00 +19°C° 0 mm 3 m/S 745 mmHg 57%
    18:00 +18°C° 0 mm 3 m/S 745 mmHg 62%
    19:00 +17°C° 0 mm 2 m/S 746 mmHg 67%
    20:00 +16°C° 0 mm 2 m/S 746 mmHg 72%
    21:00 +14°C° 0 mm 2 m/S 746 mmHg 77%
    22:00 +13°C° 0 mm 2 m/S 746 mmHg 82%
    23:00 +13°C° 0 mm 2 m/S 746 mmHg 81%

    übermorgen, 28 Mai, Dienstag

    Zeit Temperatur Niederschläge Wind Luftdruck Luftfeuchtigkeit
    00:00 +14°C° 0 mm 2 m/S 745 mmHg 79%
    01:00 +14°C° 0 mm 2 m/S 745 mmHg 78%
    02:00 +13°C° 0.3 mm 2 m/S 745 mmHg 82%
    03:00 +13°C° 0.3 mm 2 m/S 744 mmHg 86%
    04:00 +12°C° 0.3 mm 2 m/S 744 mmHg 89%
    05:00 +12°C° 1 mm 2 m/S 744 mmHg 90%
    06:00 +12°C° 1 mm 2 m/S 744 mmHg 91%
    07:00 +12°C° 1 mm 2 m/S 743 mmHg 92%
    08:00 +12°C° 1.6 mm 2 m/S 743 mmHg 92%
    09:00 +12°C° 1.6 mm 2 m/S 743 mmHg 92%
    10:00 +12°C° 1.6 mm 2 m/S 743 mmHg 92%
    11:00 +12°C° 1.6 mm 2 m/S 743 mmHg 91%
    12:00 +12°C° 1.6 mm 2 m/S 743 mmHg 91%
    13:00 +12°C° 1.6 mm 2 m/S 743 mmHg 90%
    14:00 +12°C° 0.3 mm 2 m/S 743 mmHg 88%
    15:00 +13°C° 0.3 mm 2 m/S 743 mmHg 86%
    16:00 +13°C° 0.3 mm 1 m/S 743 mmHg 83%
    17:00 +13°C° 0 mm 1 m/S 743 mmHg 85%
    18:00 +12°C° 0 mm 1 m/S 743 mmHg 86%
    19:00 +11°C° 0 mm 0 m/S 744 mmHg 87%
    20:00 +12°C° 0 mm 1 m/S 744 mmHg 89%
    21:00 +11°C° 0 mm 1 m/S 744 mmHg 90%
    22:00 +11°C° 0 mm 1 m/S 744 mmHg 92%
    23:00 +10°C° 0 mm 1 m/S 744 mmHg 93%

    29 Mai, Mittwoch

    Zeit Temperatur Niederschläge Wind Luftdruck Luftfeuchtigkeit
    00:00 +10°C° 0 mm 1 m/S 744 mmHg 93%
    01:00 +9°C° 0 mm 1 m/S 744 mmHg 94%
    02:00 +9°C° 0 mm 1 m/S 744 mmHg 94%
    03:00 +9°C° 0 mm 1 m/S 744 mmHg 94%
    04:00 +9°C° 0 mm 1 m/S 744 mmHg 95%
    05:00 +10°C° 0 mm 2 m/S 745 mmHg 91%
    06:00 +12°C° 0 mm 2 m/S 745 mmHg 87%
    07:00 +14°C° 0 mm 2 m/S 745 mmHg 83%
    08:00 +15°C° 0.3 mm 2 m/S 746 mmHg 79%
    09:00 +16°C° 0.3 mm 3 m/S 746 mmHg 75%
    10:00 +17°C° 0.3 mm 3 m/S 746 mmHg 70%
    11:00 +18°C° 0.5 mm 4 m/S 746 mmHg 68%
    12:00 +18°C° 0.5 mm 4 m/S 747 mmHg 65%
    13:00 +18°C° 0.5 mm 4 m/S 747 mmHg 63%
    14:00 +16°C° 0.4 mm 5 m/S 747 mmHg 67%
    15:00 +16°C° 0.4 mm 5 m/S 748 mmHg 72%
    16:00 +15°C° 0.4 mm 6 m/S 748 mmHg 76%
    17:00 +14°C° 0 mm 5 m/S 749 mmHg 75%
    18:00 +13°C° 0 mm 4 m/S 749 mmHg 74%
    19:00 +12°C° 0 mm 4 m/S 750 mmHg 73%
    20:00 +10°C° 0 mm 3 m/S 750 mmHg 75%
    21:00 +9°C° 0 mm 3 m/S 751 mmHg 77%
    22:00 +8°C° 0 mm 2 m/S 751 mmHg 79%
    23:00 +8°C° 0 mm 2 m/S 752 mmHg 80%

    30 Mai, Donnerstag

    Zeit Temperatur Niederschläge Wind Luftdruck Luftfeuchtigkeit
    00:00 +7°C° 0 mm 2 m/S 752 mmHg 82%
    01:00 +6°C° 0 mm 2 m/S 753 mmHg 84%
    02:00 +7°C° 0 mm 1 m/S 753 mmHg 86%
    03:00 +7°C° 0 mm 1 m/S 753 mmHg 88%
    04:00 +6°C° 0 mm 1 m/S 754 mmHg 90%
    05:00 +8°C° 0 mm 1 m/S 754 mmHg 80%
    06:00 +10°C° 0 mm 1 m/S 754 mmHg 71%
    07:00 +12°C° 0 mm 1 m/S 755 mmHg 61%
    08:00 +13°C° 0 mm 1 m/S 755 mmHg 56%
    09:00 +15°C° 0 mm 2 m/S 755 mmHg 50%
    10:00 +17°C° 0 mm 2 m/S 755 mmHg 45%
    11:00 +17°C° 0 mm 2 m/S 755 mmHg 44%
    12:00 +17°C° 0 mm 2 m/S 754 mmHg 43%
    13:00 +18°C° 0 mm 2 m/S 754 mmHg 43%
    14:00 +18°C° 0 mm 2 m/S 754 mmHg 44%
    15:00 +19°C° 0 mm 2 m/S 754 mmHg 45%
    16:00 +19°C° 0 mm 3 m/S 753 mmHg 46%
    17:00 +18°C° 0.1 mm 2 m/S 753 mmHg 53%
    18:00 +17°C° 0.1 mm 2 m/S 753 mmHg 61%
    19:00 +16°C° 0.1 mm 2 m/S 753 mmHg 68%
    20:00 +15°C° 0 mm 2 m/S 753 mmHg 69%
    21:00 +14°C° 0 mm 3 m/S 753 mmHg 70%
    22:00 +13°C° 0 mm 3 m/S 753 mmHg 71%
    23:00 +13°C° 0 mm 3 m/S 752 mmHg 73%

    31 Mai, Freitag

    Zeit Temperatur Niederschläge Wind Luftdruck Luftfeuchtigkeit
    00:00 +13°C° 0 mm 4 m/S 752 mmHg 75%
    01:00 +13°C° 0 mm 4 m/S 752 mmHg 76%
    02:00 +13°C° 0.1 mm 4 m/S 751 mmHg 81%
    03:00 +13°C° 0.1 mm 5 m/S 751 mmHg 85%
    04:00 +12°C° 0.1 mm 5 m/S 751 mmHg 89%
    05:00 +12°C° 0.8 mm 5 m/S 751 mmHg 91%
    06:00 +13°C° 0.8 mm 5 m/S 752 mmHg 92%
    07:00 +13°C° 0.8 mm 5 m/S 752 mmHg 94%
    08:00 +13°C° 0.2 mm 5 m/S 753 mmHg 88%
    09:00 +12°C° 0.2 mm 5 m/S 754 mmHg 83%
    10:00 +12°C° 0.2 mm 5 m/S 754 mmHg 78%
    11:00 +14°C° 0 mm 5 m/S 755 mmHg 64%
    12:00 +15°C° 0 mm 5 m/S 756 mmHg 51%
    13:00 +17°C° 0 mm 5 m/S 756 mmHg 37%
    14:00 +18°C° 0 mm 4 m/S 757 mmHg 37%
    15:00 +18°C° 0 mm 4 m/S 757 mmHg 37%
    16:00 +18°C° 0 mm 4 m/S 757 mmHg 37%
    17:00 +17°C° 0 mm 3 m/S 758 mmHg 42%
    18:00 +16°C° 0 mm 2 m/S 758 mmHg 48%
    19:00 +15°C° 0 mm 1 m/S 758 mmHg 53%
    20:00 +14°C° 0 mm 1 m/S 758 mmHg 57%
    21:00 +12°C° 0 mm 1 m/S 758 mmHg 60%
    22:00 +9°C° 0 mm 0 m/S 759 mmHg 63%
    23:00 +11°C° 0 mm 1 m/S 758 mmHg 62%
    Mehr zeigen